Meteo Giornale » Osservazioni meteo Gran Bretagna » Odiham

ore: 06:20 - Osservazioni Meteo Odiham
Lat. 51° 14' N Lon. 0° 57' W Alt. 123 metri s.l.m.

coperto

15 °C

Coperto

Temp. 24 Ore

13 °C

22 °C

Sud/Sud-Ovest

11.1 Km/h

Dew point 14 °C

Umidità 93 %

Visibilità  10 Km

Il sole sorge alle ore 06:18

Il sole tramonta alle ore 19:48

Data e Ora Cielo e Fenomeni T °C DP °C Um. % Pres. hPa Vis. km Vento km/h
Oggi h: 06:20 coperto Coperto 15 14 93 1019 10 S/SO 11.1
Oggi h: 05:50 coperto Coperto 15 13 87 1019 10 S/SO 11.1
Oggi h: 05:20 coperto Coperto 15 13 87 1019 10 S/SO 11.1
Oggi h: 04:50 coperto Coperto 15 13 87 1019 10 SO 13
Oggi h: 04:20 coperto Coperto 15 13 87 1019 10 S/SO 11.1
Oggi h: 03:50 coperto Coperto 16 13 82 1020 10 SO 11.1
Oggi h: 03:20 coperto Coperto 16 13 82 1019 10 SO 11.1
Oggi h: 02:50 coperto Coperto 16 13 82 1020 10 S/SO 9.3
Oggi h: 02:20 coperto Coperto 16 13 82 1020 10 SO 11.1
Oggi h: 01:50 coperto Coperto 16 13 82 1020 10 SO 11.1
Oggi h: 01:20 coperto Coperto 16 13 82 1020 10 SO 7.4
Oggi h: 00:50 molto_nuvoloso Molto Nuvoloso 16 12 77 1020 10 SO 11.1
Oggi h: 00:20 molto_nuvoloso Molto Nuvoloso 17 12 72 1020 10 SO 9.3
Ieri h: 23:50 sereno Sereno 17 12 72 1020 10 SO 11.1
Ieri h: 23:20 sereno Sereno 17 12 72 1020 10 O/SO 11.1
Ieri h: 22:50 sereno Sereno 17 12 72 1020 10 SO 11.1
Ieri h: 22:20 sereno Sereno 17 12 72 1020 10 O/SO 14.8
Ieri h: 21:50 sereno Sereno 17 12 72 1020 10 O/SO 16.7
Ieri h: 21:20 sereno Sereno 17 12 72 1020 10 O/SO 16.7
Ieri h: 20:50 sereno Sereno 18 11 63 1020 10 SO 13
Ieri h: 20:20 sereno Sereno 18 11 63 1020 10 SO 13
Ieri h: 19:50 molto_nuvoloso Molto Nuvoloso 18 11 63 1020 10 SO 16.7
Ieri h: 19:20 molto_nuvoloso Molto Nuvoloso 18 11 63 1020 10 O/SO 20.3
Ieri h: 18:50 nuvoloso Nuvoloso 19 11 59 1020 10 SO 18.5
Ieri h: 18:20 nuvoloso Nuvoloso 19 11 59 1020 10 S/SO 22.2
Ieri h: 17:50 sereno Sereno 20 11 56 1020 10 S/SO 24
Ieri h: 17:20 sereno Sereno 20 9 49 1020 10 SO 22.2
Ieri h: 16:50 sereno Sereno 21 7 40 1020 10 O 14.8
Ieri h: 16:20 sereno Sereno 21 6 37 1020 10 O/SO 18.5
Ieri h: 15:50 sereno Sereno 21 7 40 1020 10 O/SO 16.7
Ieri h: 15:20 sereno Sereno 22 8 40 1020 10 O/SO 20.3
Ieri h: 14:50 sereno Sereno 21 8 43 1020 10 O/SO 14.8
Ieri h: 14:20 sereno Sereno 21 8 43 1020 10 O/SO 25.9
Ieri h: 13:50 nuvoloso Nuvoloso 21 9 46 1020 10 SO 16.7
Ieri h: 13:20 poco_nuvoloso Poco Nuvoloso 21 10 49 1020 10 O/SO 18.5
Ieri h: 12:50 nuvoloso Nuvoloso 20 10 52 1021 10 SO 20.3
Ieri h: 12:20 poco_nuvoloso Poco Nuvoloso 19 10 55 1021 10 SO 18.5
Ieri h: 11:50 poco_nuvoloso Poco Nuvoloso 19 10 55 1021 10 O/SO 20.3
Ieri h: 11:20 nuvoloso Nuvoloso 18 10 59 1021 10 SO 16.7
Ieri h: 10:50 molto_nuvoloso Molto Nuvoloso 17 10 63 1021 10 SO 16.7
Ieri h: 10:20 molto_nuvoloso Molto Nuvoloso 17 10 63 1021 10 SO 16.7
Ieri h: 09:50 nuvoloso Nuvoloso 17 11 67 1021 10 SO 14.8
Ieri h: 09:20 molto_nuvoloso Molto Nuvoloso 16 11 72 1021 10 O/SO 14.8
Ieri h: 08:50 sereno Sereno 14 11 82 1021 10 SO 9.3
Ieri h: 08:20 sereno Sereno 13 10 81 1021 10 SO 9.3
Ieri h: 07:50 sereno Sereno 13 10 81 1021 10 SO 11.1